SCO15HI EGCC-EGPH

Flight info

Callsign SCO15HI
Flight time 0h 37m
Altitude 24000
Route POL N601 INPIP
Aircraft B738/M-SDE2E3FGHIRWXY/LB1

Departure

Time 2026-04-20 15:45
Airport Manchester Airport (EGCC)

Arrival

Time 2026-04-20 16:22
Airport Edinburgh Airport (EGPH)
Time Latitude Longitude Altitude Speed Heading
2026-04-20 15:25 53.35979 -2.27511 241 ft 0 kts 98°
2026-04-20 15:35 53.35982 -2.27542 241 ft 4 kts 97°
2026-04-20 15:35 53.35987 -2.27585 241 ft 4 kts 114°
2026-04-20 15:35 53.36002 -2.27617 240 ft 4 kts 155°
2026-04-20 15:36 53.36017 -2.27623 240 ft 0 kts 186°
2026-04-20 15:39 53.36010 -2.27624 240 ft 3 kts 186°
2026-04-20 15:39 53.35953 -2.27634 240 ft 12 kts 185°
2026-04-20 15:39 53.35861 -2.27649 239 ft 13 kts 185°
2026-04-20 15:40 53.35769 -2.27659 237 ft 13 kts 169°
2026-04-20 15:40 53.35684 -2.27612 238 ft 13 kts 168°
2026-04-20 15:40 53.35609 -2.27675 238 ft 12 kts 224°
2026-04-20 15:40 53.35547 -2.27773 238 ft 12 kts 223°
2026-04-20 15:41 53.35486 -2.27869 237 ft 12 kts 223°
2026-04-20 15:41 53.35424 -2.27972 234 ft 13 kts 225°
2026-04-20 15:41 53.35357 -2.28083 233 ft 13 kts 224°
2026-04-20 15:41 53.35287 -2.28198 229 ft 15 kts 224°
2026-04-20 15:42 53.35215 -2.28332 227 ft 15 kts 231°
2026-04-20 15:42 53.35150 -2.28469 225 ft 15 kts 231°
2026-04-20 15:42 53.35087 -2.28598 226 ft 14 kts 230°
2026-04-20 15:42 53.35026 -2.28721 224 ft 14 kts 227°
2026-04-20 15:43 53.34960 -2.28836 223 ft 13 kts 226°
2026-04-20 15:43 53.34892 -2.28953 220 ft 16 kts 226°
2026-04-20 15:43 53.34795 -2.29069 220 ft 18 kts 190°
2026-04-20 15:43 53.34688 -2.29002 217 ft 17 kts 120°
2026-04-20 15:44 53.34715 -2.28851 219 ft 14 kts 52°
2026-04-20 15:44 53.34791 -2.28689 226 ft 23 kts 50°
2026-04-20 15:44 53.34942 -2.28384 229 ft 60 kts 50°
2026-04-20 15:44 53.35367 -2.27512 242 ft 127 kts 51°
2026-04-20 15:45 53.36028 -2.26132 390 ft 169 kts 51°
2026-04-20 15:45 53.36778 -2.24600 1196 ft 171 kts 52°
2026-04-20 15:45 53.37489 -2.23097 2221 ft 162 kts 54°
2026-04-20 15:45 53.38221 -2.21507 2695 ft 188 kts 54°
2026-04-20 15:46 53.39072 -2.19657 2962 ft 212 kts 54°
2026-04-20 15:46 53.40010 -2.17622 3331 ft 226 kts 53°
2026-04-20 15:46 53.40983 -2.15511 3792 ft 232 kts 54°
2026-04-20 15:46 53.41971 -2.13360 4239 ft 234 kts 54°
2026-04-20 15:47 53.42969 -2.11186 4686 ft 236 kts 52°
2026-04-20 15:47 53.44254 -2.09480 5114 ft 241 kts 24°
2026-04-20 15:47 53.45905 -2.09052 5553 ft 246 kts 354°
2026-04-20 15:47 53.47571 -2.09689 6013 ft 245 kts 356°
2026-04-20 15:48 53.49269 -2.09650 6479 ft 245 kts
2026-04-20 15:48 53.50991 -2.09634 6891 ft 250 kts
2026-04-20 15:48 53.52744 -2.09682 7296 ft 255 kts
2026-04-20 15:48 53.54519 -2.09753 7696 ft 252 kts 360°
2026-04-20 15:49 53.56260 -2.09806 8135 ft 250 kts
2026-04-20 15:49 53.58007 -2.09853 8595 ft 252 kts
2026-04-20 15:49 53.59770 -2.09902 9049 ft 254 kts
2026-04-20 15:49 53.61541 -2.09952 9512 ft 256 kts
2026-04-20 15:50 53.63366 -2.10000 10005 ft 269 kts
2026-04-20 15:50 53.65285 -2.10050 10484 ft 282 kts
2026-04-20 15:50 53.67294 -2.10105 10930 ft 295 kts 360°
2026-04-20 15:50 53.69390 -2.10162 11381 ft 308 kts 360°
2026-04-20 15:51 53.71569 -2.10221 11834 ft 318 kts 360°
2026-04-20 15:51 53.73784 -2.10305 12271 ft 318 kts 356°
2026-04-20 15:51 53.75945 -2.11189 12720 ft 323 kts 339°
2026-04-20 15:51 53.78014 -2.12658 13186 ft 331 kts 337°
2026-04-20 15:52 53.80140 -2.14196 13645 ft 332 kts 337°
2026-04-20 15:52 53.82271 -2.15704 14113 ft 333 kts 338°
2026-04-20 15:52 53.84417 -2.17198 14534 ft 333 kts 338°
2026-04-20 15:53 53.88720 -2.20161 15377 ft 335 kts 338°
2026-04-20 15:53 53.90186 -2.21163 15678 ft 336 kts 338°
2026-04-20 15:53 53.92363 -2.22652 16119 ft 338 kts 338°
2026-04-20 15:53 53.94549 -2.24150 16557 ft 340 kts 338°
2026-04-20 15:54 53.96720 -2.25639 17020 ft 342 kts 338°
2026-04-20 15:54 53.98931 -2.27160 17478 ft 344 kts 338°
2026-04-20 15:54 54.01149 -2.28686 17945 ft 345 kts 338°
2026-04-20 15:54 54.03378 -2.30224 18420 ft 346 kts 338°
2026-04-20 15:55 54.05613 -2.31770 18864 ft 348 kts 338°
2026-04-20 15:55 54.07861 -2.33327 19292 ft 350 kts 338°
2026-04-20 15:55 54.10117 -2.34890 19703 ft 351 kts 338°
2026-04-20 15:55 54.12387 -2.36464 20132 ft 353 kts 338°
2026-04-20 15:56 54.14676 -2.38054 20312 ft 360 kts 338°
2026-04-20 15:56 54.17011 -2.39676 20320 ft 364 kts 338°
2026-04-20 15:56 54.19359 -2.41303 20316 ft 364 kts 338°
2026-04-20 15:56 54.21700 -2.42924 20315 ft 361 kts 338°
2026-04-20 15:57 54.24016 -2.44530 20314 ft 357 kts 338°
2026-04-20 15:57 54.26309 -2.46123 20320 ft 356 kts 338°
2026-04-20 15:57 54.28615 -2.47727 20337 ft 359 kts 338°
2026-04-20 15:57 54.30936 -2.49342 20328 ft 361 kts 338°
2026-04-20 15:58 54.33260 -2.50963 20331 ft 362 kts 338°
2026-04-20 15:58 54.35588 -2.52589 20330 ft 362 kts 338°
2026-04-20 15:58 54.37930 -2.54227 20309 ft 362 kts 338°
2026-04-20 15:58 54.40252 -2.55852 20321 ft 359 kts 338°
2026-04-20 15:59 54.42559 -2.57470 20319 ft 358 kts 338°
2026-04-20 15:59 54.44855 -2.59080 20331 ft 357 kts 338°
2026-04-20 15:59 54.47164 -2.60702 20103 ft 361 kts 338°
2026-04-20 15:59 54.49503 -2.62347 19667 ft 364 kts 338°
2026-04-20 16:00 54.51844 -2.63999 19252 ft 363 kts 338°
2026-04-20 16:00 54.54177 -2.65653 18824 ft 362 kts 338°
2026-04-20 16:00 54.56500 -2.67303 18380 ft 360 kts 338°
2026-04-20 16:00 54.58804 -2.68941 17906 ft 357 kts 338°
2026-04-20 16:01 54.61086 -2.70566 17450 ft 353 kts 338°
2026-04-20 16:01 54.63348 -2.72177 16984 ft 351 kts 338°
2026-04-20 16:01 54.65596 -2.73779 16535 ft 348 kts 338°
2026-04-20 16:01 54.67830 -2.75374 16083 ft 346 kts 338°
2026-04-20 16:02 54.70042 -2.76956 15642 ft 344 kts 338°
2026-04-20 16:02 54.72249 -2.78533 15370 ft 343 kts 338°
2026-04-20 16:02 54.74476 -2.80122 15342 ft 346 kts 338°
2026-04-20 16:02 54.76661 -2.81682 15326 ft 344 kts 338°
2026-04-20 16:03 54.78868 -2.83261 15324 ft 344 kts 338°
2026-04-20 16:03 54.81084 -2.84848 15322 ft 345 kts 338°
2026-04-20 16:03 54.83298 -2.86435 15325 ft 345 kts 338°
2026-04-20 16:03 54.85519 -2.88031 15322 ft 345 kts 338°
2026-04-20 16:04 54.87731 -2.89644 15317 ft 346 kts 338°
2026-04-20 16:04 54.89948 -2.91272 15319 ft 346 kts 338°
2026-04-20 16:04 54.92164 -2.92906 15314 ft 346 kts 338°
2026-04-20 16:04 54.94372 -2.94538 15318 ft 345 kts 338°
2026-04-20 16:05 54.96585 -2.96175 15314 ft 345 kts 338°
2026-04-20 16:05 54.98798 -2.97814 15314 ft 345 kts 338°
2026-04-20 16:05 55.01008 -2.99451 15320 ft 345 kts 338°
2026-04-20 16:05 55.03225 -3.01094 15319 ft 346 kts 338°
2026-04-20 16:06 55.05434 -3.02732 15317 ft 345 kts 338°
2026-04-20 16:06 55.07643 -3.04372 15318 ft 345 kts 338°
2026-04-20 16:06 55.09856 -3.06016 15328 ft 345 kts 337°
2026-04-20 16:06 55.12068 -3.07660 15332 ft 345 kts 337°
2026-04-20 16:07 55.14277 -3.09302 15330 ft 345 kts 337°
2026-04-20 16:07 55.16482 -3.10944 15331 ft 345 kts 337°
2026-04-20 16:07 55.18691 -3.12590 15337 ft 345 kts 337°
2026-04-20 16:07 55.20909 -3.14245 15039 ft 348 kts 337°
2026-04-20 16:08 55.23104 -3.15888 14653 ft 338 kts 338°
2026-04-20 16:08 55.25228 -3.17484 14266 ft 326 kts 338°
2026-04-20 16:08 55.27278 -3.19029 13922 ft 315 kts 338°
2026-04-20 16:08 55.29252 -3.20523 13577 ft 304 kts 337°
2026-04-20 16:09 55.31174 -3.21978 13245 ft 297 kts 337°
2026-04-20 16:09 55.33060 -3.23403 12919 ft 293 kts 337°
2026-04-20 16:09 55.34919 -3.24805 12594 ft 290 kts 337°
2026-04-20 16:09 55.36777 -3.26202 12290 ft 292 kts 337°
2026-04-20 16:10 55.38651 -3.27605 11984 ft 294 kts 337°
2026-04-20 16:10 55.40541 -3.29012 11631 ft 295 kts 337°
2026-04-20 16:10 55.42426 -3.30411 11275 ft 293 kts 337°
2026-04-20 16:10 55.44303 -3.31799 10920 ft 292 kts 337°
2026-04-20 16:11 55.46169 -3.33176 10568 ft 290 kts 337°
2026-04-20 16:11 55.48004 -3.34528 10229 ft 289 kts 337°
2026-04-20 16:11 55.49852 -3.35889 9847 ft 288 kts 337°
2026-04-20 16:11 55.51695 -3.37250 9468 ft 287 kts 337°
2026-04-20 16:12 55.53528 -3.38611 9087 ft 285 kts 337°
2026-04-20 16:12 55.55356 -3.39977 8718 ft 284 kts 337°
2026-04-20 16:12 55.57175 -3.41343 8351 ft 284 kts 337°
2026-04-20 16:12 55.58985 -3.42708 7984 ft 281 kts 337°
2026-04-20 16:13 55.60771 -3.44063 7623 ft 278 kts 337°
2026-04-20 16:13 55.62532 -3.45403 7266 ft 274 kts 337°
2026-04-20 16:13 55.64266 -3.46726 6912 ft 271 kts 337°
2026-04-20 16:13 55.65999 -3.48048 6552 ft 270 kts 337°
2026-04-20 16:14 55.67717 -3.49362 6182 ft 268 kts 337°
2026-04-20 16:14 55.69398 -3.50693 5805 ft 262 kts 332°
2026-04-20 16:14 55.70856 -3.52593 5442 ft 258 kts 321°
2026-04-20 16:14 55.72199 -3.54666 5077 ft 254 kts 320°
2026-04-20 16:15 55.73507 -3.56740 4695 ft 250 kts 319°
2026-04-20 16:15 55.74794 -3.58807 4341 ft 247 kts 319°
2026-04-20 16:15 55.76051 -3.60833 4041 ft 241 kts 319°
2026-04-20 16:15 55.77284 -3.62827 4006 ft 240 kts 319°
2026-04-20 16:16 55.78517 -3.64828 3999 ft 240 kts 319°
2026-04-20 16:16 55.79755 -3.66838 3998 ft 241 kts 319°
2026-04-20 16:16 55.80957 -3.68790 4005 ft 225 kts 319°
2026-04-20 16:16 55.82120 -3.70421 3963 ft 203 kts 341°
2026-04-20 16:17 55.83460 -3.70497 4015 ft 196 kts 21°
2026-04-20 16:17 55.84478 -3.69030 3990 ft 186 kts 64°
2026-04-20 16:17 55.85005 -3.67025 3837 ft 174 kts 62°
2026-04-20 16:17 55.85593 -3.65191 3629 ft 169 kts 60°
2026-04-20 16:18 55.86190 -3.63404 3414 ft 167 kts 60°
2026-04-20 16:18 55.86771 -3.61671 3178 ft 161 kts 60°
2026-04-20 16:18 55.87335 -3.59986 2953 ft 156 kts 60°
2026-04-20 16:18 55.87886 -3.58349 2759 ft 153 kts 60°
2026-04-20 16:19 55.88433 -3.56722 2571 ft 150 kts 60°
2026-04-20 16:19 55.88975 -3.55112 2350 ft 152 kts 59°
2026-04-20 16:19 55.89524 -3.53477 2112 ft 154 kts 60°
2026-04-20 16:19 55.90075 -3.51838 1896 ft 154 kts 60°
2026-04-20 16:20 55.90618 -3.50227 1678 ft 148 kts 60°
2026-04-20 16:20 55.91135 -3.48693 1490 ft 141 kts 60°
2026-04-20 16:20 55.91635 -3.47213 1282 ft 138 kts 60°
2026-04-20 16:20 55.92118 -3.45771 1085 ft 133 kts 60°
2026-04-20 16:21 55.92598 -3.44355 890 ft 135 kts 60°
2026-04-20 16:21 55.93079 -3.42924 719 ft 135 kts 59°
2026-04-20 16:21 55.93578 -3.41479 529 ft 137 kts 58°
2026-04-20 16:21 55.94069 -3.40002 337 ft 139 kts 59°
2026-04-20 16:22 55.94568 -3.38523 142 ft 137 kts 58°
2026-04-20 16:22 55.95020 -3.37200 110 ft 101 kts 59°
2026-04-20 16:22 55.95258 -3.36489 111 ft 13 kts 59°
2026-04-20 16:22 55.95238 -3.36394 111 ft 10 kts 139°
2026-04-20 16:23 55.95176 -3.36329 111 ft 10 kts 152°
2026-04-20 16:23 55.95115 -3.36330 112 ft 8 kts 212°
2026-04-20 16:23 55.95068 -3.36383 113 ft 8 kts 187°
2026-04-20 16:23 55.95012 -3.36397 112 ft 7 kts 202°
2026-04-20 16:24 55.94986 -3.36463 114 ft 7 kts 249°
2026-04-20 16:24 55.94964 -3.36540 115 ft 7 kts 237°
2026-04-20 16:24 55.94944 -3.36586 115 ft 4 kts 212°
2026-04-20 16:24 55.94914 -3.36580 115 ft 5 kts 155°
2026-04-20 16:25 55.94887 -3.36555 114 ft 3 kts 150°
2026-04-20 16:25 55.94883 -3.36550 115 ft 0 kts 149°